sat.trackr.live / text

‹ back to catalog

STARLINK-3969

NORAD 52551 · 2022-051U

PAYLOAD ACTIVE UNKNOWN

§ Identity

Operator
Country
US
Launch date
2022-05-13
Launch site
AFWTR
Launch vehicle
Mass (kg)
RCS (m²)

Purposes: comms

External: N2YO · Heavens-Above · Gunter

§ Orbital elements

Epoch: 2026-05-24T17:12:19.352160Z

Period
95.44 min
Inclination
53.2142°
Eccentricity
0.0001023
Mean motion
15.08834013 rev/d
Perigee alt
539.1 km
Apogee alt
540.5 km
Semi-major
6,917.9 km
B*
3.3658e-5
RAAN
147.8217°
Arg perigee
73.9092°
Mean anomaly
286.2013°
Rev number
22,292

§ Raw data

STARLINK-39691 52551U 22051U   26144.71689065  .00000248  00000+0  33658-4 0  99992 52551  53.2142 147.8217 0001023  73.9092 286.2013 15.08834013222925

JSON: /api/v1/satellites/52551 · /tle

For live sub-satellite position, see the globe view (requires WebGL).

§ Visibility from observer

Set your observer location to see the next 7 days of passes ≥ 10°. The values pass through the URL so the page stays shareable.

No JS? Fill the form by hand. The geolocation button needs JavaScript.